Location: Fauquembergues
(50.6005°N, 2.0987°E)
Time: 20:40:22
(UTC+00:00)

Meteor 1-18 Rocket - Pass Details

Date: 14 July 2020
Orbit: 836 x 909 km, 81.2° (Epoch: 14 August)

Event Time Altitude Azimuth Distance (km) Brightness Sun altitude
Rises 01:00:41 0° 346° (NNW) 3,525 8.5 -16.4°
Reaches altitude 10° 01:03:10 10° 346° (NNW) 2,572 7.6 -16.3°
Maximum altitude 01:09:02 81° 260° (W) 897 4.2 -16.1°
Enters shadow 01:12:52 22° 175° (S) 1,813 5.4 -15.9°
